KT5AL Weather Reports


Display with metric or nautical units.
time (UTC)temp
F
wind
direction
speed
MPH
gust
MPH
rain 1hr
in
rain 24hr
in
rain mn
in
humidity
%
barometer
mb
20210804192008 88 135 7.0 10.0 0.00 0.00 0.00 49 1009.4
20210804191006 88 135 7.0 10.0 0.00 0.00 0.00 51 1009.7
20210804190502 87 135 10.0 13.0 0.00 0.00 0.00 51 1010.0
20210804185506 86 135 5.0 13.0 0.00 0.00 0.00 52 1010.0
20210804185004 85 112 2.0 3.0 0.00 0.00 0.00 54 1010.0
20210804184006 87 180 4.0 9.0 0.00 0.00 0.00 54 1010.4
20210804183503 86 157 3.0 5.0 0.00 0.00 0.00 56 1010.4
20210804183007 85 157 4.0 6.0 0.00 0.00 0.00 56 1010.4
20210804182503 85 90 5.0 7.0 0.00 0.00 0.00 56 1010.4
20210804180502 85 90 7.0 9.0 0.00 0.00 0.00 55 1010.0
20210804175007 86 112 12.0 15.0 0.00 0.00 0.00 54 1010.0
20210804174505 87 157 6.0 8.0 0.00 0.00 0.00 59 1010.0
20210804174008 86 112 8.0 10.0 0.00 0.00 0.00 56 1010.0
20210804171506 85 135 6.0 8.0 0.00 0.00 0.00 61 1011.4
20210804171003 84 180 3.0 6.0 0.00 0.00 0.00 62 1011.4
20210804170506 83 112 9.0 11.0 0.00 0.00 0.00 61 1011.4
20210804170004 84 112 6.0 9.0 0.00 0.00 0.00 61 1011.4
20210804164503 84 135 4.0 8.0 0.00 0.00 0.00 63 1011.0
20210804164006 83 90 7.0 10.0 0.00 0.00 0.00 59 1011.0
20210804163534 85 135 8.0 14.0 0.00 0.00 0.00 60 1011.0
20210804163003 84 157 6.0 8.0 0.00 0.00 0.00 63 1011.0
20210804162009 83 90 6.0 12.0 0.00 0.00 0.00 62 1011.0
20210804161503 83 112 9.0 13.0 0.00 0.00 0.00 64 1011.0
20210804161006 82 157 4.0 5.0 0.00 0.00 0.00 67 1011.0
20210804160504 82 112 11.0 14.0 0.00 0.00 0.00 66 1011.0
20210804160006 81 135 10.0 13.0 0.00 0.00 0.00 66 1011.0
20210804155504 82 135 8.0 10.0 0.00 0.00 0.00 66 1011.4
20210804154502 82 135 7.0 11.0 0.00 0.00 0.00 69 1011.7
20210804153007 82 157 9.0 12.0 0.00 0.00 0.00 68 1011.7
20210804152005 83 157 4.0 5.0 0.00 0.00 0.00 67 1011.7
20210804151503 82 157 4.0 6.0 0.00 0.00 0.00 69 1012.1
20210804145507 80 135 5.0 6.0 0.00 0.00 0.00 76 1011.4
20210804142506 80 112 8.0 10.0 0.00 0.00 0.00 76 1011.4
20210804142003 80 135 9.0 11.0 0.00 0.00 0.00 77 1011.4
20210804140502 79 157 3.0 4.0 0.00 0.00 0.00 84 1012.4
20210804140005 78 135 7.0 8.0 0.00 0.00 0.00 85 1012.4
20210804135003 78 135 5.0 6.0 0.00 0.00 0.00 88 1012.4
20210804134506 77 135 4.0 6.0 0.00 0.00 0.00 88 1012.7
20210804133504 77 135 6.0 7.0 0.00 0.00 0.00 91 1012.7
20210804133007 76 135 5.0 6.0 0.00 0.00 0.00 92 1012.7
20210804130502 75 270 0.0 0.0 0.00 0.00 0.00 94 1013.1
20210804130006 75 270 0.0 0.0 0.00 0.00 0.00 94 1013.1
20210804125504 75 270 0.0 1.0 0.00 0.00 0.00 94 1012.7
20210804124003 74 270 0.0 1.0 0.00 0.00 0.00 94 1012.7
20210804123008 74 270 0.0 0.0 0.00 0.00 0.00 94 1012.7
20210804122504 74 270 0.0 0.0 0.00 0.00 0.00 94 1012.7
20210804122002 74 270 0.0 0.0 0.00 0.00 0.00 94 1012.7
20210804120509 74 270 0.0 0.0 0.00 0.00 0.00 94 1012.7
20210804120004 74 270 0.0 0.0 0.00 0.00 0.00 94 1012.7
20210804115509 74 22 1.0 2.0 0.00 0.00 0.00 95 1012.4
20210804112512 73 67 3.0 3.0 0.00 0.00 0.00 93 1012.1
20210804111002 74 67 0.0 0.0 0.00 0.00 0.00 92 1012.1
20210804110005 74 67 0.0 0.0 0.00 0.00 0.00 92 1012.1
20210804105003 74 67 2.0 3.0 0.00 0.00 0.00 92 1012.1
20210804104002 74 67 1.0 2.0 0.00 0.00 0.00 92 1012.1
20210804102508 74 67 4.0 4.0 0.00 0.00 0.00 93 1011.7
20210804100019 74 67 3.0 3.0 0.00 0.00 0.00 91 1011.4
20210804094507 74 67 4.0 5.0 0.00 0.00 0.00 90 1011.7
20210804093505 74 67 3.0 4.0 0.00 0.00 0.00 91 1011.7
20210804093007 74 67 3.0 4.0 0.00 0.00 0.00 91 1011.7
20210804092504 74 67 4.0 4.0 0.00 0.00 0.00 90 1011.4
20210804092015 75 67 1.0 2.0 0.00 0.00 0.00 90 1011.4
20210804085504 75 67 0.0 0.0 0.00 0.00 0.00 86 1011.4
20210804085007 75 67 1.0 1.0 0.00 0.00 0.00 87 1011.4
20210804081007 75 67 2.0 3.0 0.00 0.00 0.00 89 1011.7
20210804075505 75 67 0.0 0.0 0.00 0.00 0.00 89 1011.7
20210804075002 75 67 0.0 0.0 0.00 0.00 0.00 87 1011.7
20210804074505 75 67 0.0 0.0 0.00 0.00 0.00 87 1011.7
20210804073503 75 67 0.0 0.0 0.00 0.00 0.00 88 1011.7
20210804071510 75 67 1.0 2.0 0.00 0.00 0.00 89 1011.7
20210804070006 75 67 0.0 0.0 0.00 0.00 0.00 86 1011.7
20210804065003 75 67 0.0 0.0 0.00 0.00 0.00 84 1011.7
20210804064009 75 67 0.0 0.0 0.00 0.00 0.00 85 1011.7
20210804063005 75 67 0.0 0.0 0.00 0.00 0.00 84 1011.4
20210804061037 75 67 0.0 0.0 0.00 0.00 0.00 84 1011.7
20210804060006 76 67 2.0 3.0 0.00 0.00 0.00 85 1011.4
20210804055503 76 67 3.0 4.0 0.00 0.00 0.00 85 1011.4
20210804054002 76 67 5.0 5.0 0.00 0.00 0.00 83 1011.4
20210804053505 76 67 3.0 4.0 0.00 0.00 0.00 83 1011.4
20210804052503 76 67 4.0 4.0 0.00 0.00 0.00 82 1011.4
20210804052006 76 67 4.0 4.0 0.00 0.00 0.00 81 1011.4
20210804051503 76 67 3.0 4.0 0.00 0.00 0.00 80 1011.0
20210804050507 77 67 5.0 5.0 0.00 0.00 0.00 80 1011.0
20210804050005 77 67 4.0 5.0 0.00 0.00 0.00 79 1011.0
20210804045502 77 67 5.0 7.0 0.00 0.45 0.00 79 1011.0
20210804045005 77 67 6.0 7.0 0.00 0.45 0.00 79 1011.0
20210804044503 77 67 5.0 6.0 0.00 0.45 0.00 79 1011.0
20210804044006 77 67 6.0 7.0 0.00 0.45 0.00 79 1011.0
20210804042504 77 45 5.0 6.0 0.00 0.45 0.00 79 1011.4
20210804042007 77 45 5.0 6.0 0.00 0.45 0.00 79 1011.4
20210804041504 77 45 5.0 7.0 0.00 0.45 0.00 79 1011.4
20210804040003 76 22 4.0 6.0 0.00 0.45 0.00 82 1011.0
20210804034503 76 337 4.0 5.0 0.00 0.45 0.00 81 1011.0
20210804034006 76 337 4.0 5.0 0.00 0.45 0.00 81 1011.0
20210804033503 76 337 3.0 4.0 0.00 0.45 0.00 79 1010.7
20210804033006 77 360 3.0 3.0 0.00 0.45 0.00 78 1010.7
20210804032503 77 360 3.0 3.0 0.00 0.45 0.00 77 1010.7
20210804032006 77 22 0.0 0.0 0.00 0.45 0.00 76 1010.7
20210804030512 78 22 2.0 3.0 0.00 0.45 0.00 72 1010.4
20210804025007 78 45 3.0 4.0 0.00 0.45 0.00 71 1010.0
20210804023009 79 45 2.0 3.0 0.00 0.45 0.00 67 1009.7
20210804022003 79 45 2.0 3.0 0.00 0.45 0.00 67 1009.4
20210804021506 79 67 2.0 3.0 0.00 0.45 0.00 67 1009.0
20210804021007 80 67 1.0 2.0 0.00 0.45 0.00 66 1009.0
20210804020505 80 67 0.0 0.0 0.00 0.45 0.00 66 1009.0
20210804014003 81 67 2.0 3.0 0.00 0.45 0.00 61 1008.3
20210804013506 81 67 3.0 4.0 0.00 0.45 0.00 61 1008.0
20210804011506 82 67 4.0 5.0 0.00 0.45 0.00 58 1007.7
20210804011003 83 67 3.0 4.0 0.00 0.45 0.00 57 1007.7
20210804010016 83 67 3.0 4.0 0.00 0.45 0.00 56 1007.3
20210804001506 85 67 6.0 9.0 0.00 0.45 0.00 52 1006.6
20210804001003 85 67 5.0 6.0 0.00 0.45 0.00 52 1006.6
20210804000506 85 45 8.0 10.0 0.00 0.45 0.00 51 1006.6
20210804000003 85 67 5.0 7.0 0.00 0.45 0.00 51 1006.6
20210803234503 86 45 6.0 8.0 0.00 0.45 0.00 50 1006.6
20210803232503 86 67 5.0 7.0 0.00 0.45 0.00 49 1006.6
20210803231007 86 45 4.0 5.0 0.00 0.45 0.00 49 1006.6
20210803230504 86 67 8.0 10.0 0.00 0.45 0.00 49 1006.3
20210803225528 86 67 8.0 10.0 0.00 0.45 0.00 47 1006.3
20210803225006 87 90 7.0 9.0 0.00 0.45 0.00 49 1006.3
20210803224503 86 45 9.0 13.0 0.00 0.45 0.00 48 1006.3
20210803223007 87 90 4.0 5.0 0.00 0.45 0.00 46 1006.6
20210803222504 87 90 6.0 9.0 0.00 0.45 0.00 46 1006.0
20210803221502 88 112 5.0 7.0 0.00 0.45 0.00 46 1006.0
20210803215003 89 360 5.0 8.0 0.00 0.45 0.00 44 1005.6
20210803214507 89 337 6.0 7.0 0.00 0.45 0.00 42 1006.0
20210803214004 89 360 3.0 5.0 0.00 0.45 0.00 44 1006.0
20210803212503 88 112 8.0 9.0 0.00 0.45 0.00 43 1006.0
20210803212006 88 45 6.0 7.0 0.00 0.45 0.00 46 1006.0
20210803211503 89 22 4.0 8.0 0.00 0.45 0.00 42 1006.3
20210803211006 88 337 5.0 6.0 0.00 0.45 0.00 43 1006.3
20210803210503 87 22 6.0 8.0 0.00 0.45 0.00 44 1006.6
20210803210007 87 22 7.0 9.0 0.00 0.45 0.00 44 1006.6
20210803202504 87 337 4.0 5.0 0.00 0.45 0.00 46 1007.0
20210803201502 87 45 4.0 7.0 0.00 0.45 0.00 47 1007.3
20210803200506 86 45 10.0 12.0 0.00 0.45 0.00 49 1007.3
20210803200003 86 22 7.0 8.0 0.00 0.45 0.00 50 1007.3
20210803195506 87 112 6.0 7.0 0.00 0.45 0.00 47 1007.3
20210803195029 86 337 3.0 4.0 0.00 0.45 0.00 49 1007.3
20210803194006 87 45 8.0 12.0 0.00 0.45 0.00 47 1007.3
20210803193503 87 22 8.0 10.0 0.00 0.45 0.00 45 1007.7
20210803193006 87 45 5.0 7.0 0.00 0.45 0.00 46 1007.7
20210803192503 87 67 6.0 10.0 0.00 0.45 0.00 45 1008.0